User: anonymous   Login
Location: Notre Dame Regional High School Observatory
(37.3056°N, 89.6097°W)
Time: 13:44:27
(UTC-05:00)
Language:

ATLAS 3B R/B - Orbit

View from above orbital plane
View from above orbital plane
View from above satellite
View from above satellite

Ground track
Ground track

The orbit data is extracted from the following two-line orbital elements,

1 28538U 05004B   16239.08626440 0.00000000  00000-0  00000-0 0    09
2 28538  63.8228 320.5580 0170000 196.6533 163.3467 13.43087590    01
Epoch (UTC): 26 August 2016 02:04:13
Eccentricity: 0.0170000
inclination: 63.8228°
perigee height: 971 km
apogee height: 1225 km
right ascension of ascending node: 320.5580°
argument of perigee: 196.6533°
revolutions per day: 13.43087590
mean anomaly at epoch: 163.3467°
orbit number at epoch: 0

The dashed part of the orbit path shows where the satellite is in the earth's shadow,  

DLR